ARG1503 SASA-SABE

Flight info

Callsign ARG1503
Flight time 1h 35m
Altitude 35000
Route VUL1 PONPI UT681 PUBER UL550 ROS UT672 MULTA UW24 SNT SNT8Q
Aircraft B738/M-SDE2E3FGHIRWXY/LB1

Departure

Time 2026-04-21 21:51
Airport Martín Miguel de Güemes International Airport (SASA)

Arrival

Time 2026-04-21 23:26
Airport Aeroparque Jorge Newbery (SABE)
Time Latitude Longitude Altitude Speed Heading
2026-04-21 20:51 -24.84470 -65.47899 4016 ft 0 kts 22°
2026-04-21 21:42 -24.84471 -65.47899 4016 ft 2 kts 22°
2026-04-21 21:42 -24.84494 -65.47908 4016 ft 4 kts
2026-04-21 21:42 -24.84510 -65.47905 4016 ft 3 kts 292°
2026-04-21 21:42 -24.84519 -65.47879 4016 ft 4 kts 292°
2026-04-21 21:43 -24.84526 -65.47861 4016 ft 0 kts 292°
2026-04-21 21:45 -24.84526 -65.47862 4016 ft 1 kts 292°
2026-04-21 21:45 -24.84512 -65.47903 4016 ft 10 kts 288°
2026-04-21 21:45 -24.84513 -65.48009 4016 ft 18 kts 252°
2026-04-21 21:45 -24.84560 -65.48165 4016 ft 23 kts 252°
2026-04-21 21:46 -24.84614 -65.48326 4016 ft 22 kts 234°
2026-04-21 21:46 -24.84730 -65.48433 4017 ft 22 kts 204°
2026-04-21 21:46 -24.84876 -65.48471 4017 ft 23 kts 191°
2026-04-21 21:46 -24.85046 -65.48508 4017 ft 27 kts 191°
2026-04-21 21:47 -24.85240 -65.48550 4016 ft 30 kts 191°
2026-04-21 21:47 -24.85449 -65.48594 4017 ft 31 kts 191°
2026-04-21 21:47 -24.85660 -65.48639 4017 ft 30 kts 191°
2026-04-21 21:47 -24.85862 -65.48682 4018 ft 29 kts 191°
2026-04-21 21:48 -24.86053 -65.48723 4018 ft 27 kts 191°
2026-04-21 21:48 -24.86232 -65.48760 4016 ft 25 kts 191°
2026-04-21 21:48 -24.86399 -65.48796 4005 ft 24 kts 191°
2026-04-21 21:48 -24.86557 -65.48830 4006 ft 23 kts 191°
2026-04-21 21:49 -24.86709 -65.48862 4004 ft 22 kts 191°
2026-04-21 21:49 -24.86857 -65.48894 4008 ft 21 kts 191°
2026-04-21 21:49 -24.87001 -65.48925 4016 ft 21 kts 191°
2026-04-21 21:49 -24.87141 -65.48953 4018 ft 20 kts 187°
2026-04-21 21:50 -24.87252 -65.48960 4018 ft 5 kts 216°
2026-04-21 21:50 -24.87239 -65.48976 4018 ft 4 kts
2026-04-21 21:50 -24.87184 -65.48964 4018 ft 26 kts 11°
2026-04-21 21:50 -24.86769 -65.48875 4010 ft 94 kts 11°
2026-04-21 21:51 -24.85934 -65.48697 4018 ft 149 kts 11°
2026-04-21 21:51 -24.84784 -65.48448 4262 ft 176 kts 12°
2026-04-21 21:51 -24.83571 -65.48179 4980 ft 181 kts 14°
2026-04-21 21:51 -24.82296 -65.47895 5464 ft 198 kts 13°
2026-04-21 21:52 -24.80860 -65.47569 5649 ft 221 kts 14°
2026-04-21 21:52 -24.79290 -65.47216 5919 ft 239 kts 13°
2026-04-21 21:52 -24.77662 -65.46816 6509 ft 241 kts 21°
2026-04-21 21:52 -24.76287 -65.45802 7178 ft 241 kts 49°
2026-04-21 21:53 -24.75490 -65.44148 7662 ft 258 kts 77°
2026-04-21 21:53 -24.75536 -65.42096 7978 ft 280 kts 100°
2026-04-21 21:53 -24.75987 -65.39988 8654 ft 287 kts 108°
2026-04-21 21:53 -24.77125 -65.38169 9346 ft 296 kts 141°
2026-04-21 21:54 -24.78981 -65.37175 10093 ft 302 kts 166°
2026-04-21 21:54 -24.81097 -65.36842 10539 ft 317 kts 175°
2026-04-21 21:54 -24.83381 -65.36698 10708 ft 341 kts 178°
2026-04-21 21:54 -24.85811 -65.36601 11013 ft 356 kts 178°
2026-04-21 21:55 -24.88313 -65.36505 11556 ft 363 kts 178°
2026-04-21 21:55 -24.90844 -65.36396 12238 ft 364 kts 178°
2026-04-21 21:55 -24.93379 -65.36276 12921 ft 366 kts 178°
2026-04-21 21:55 -24.95930 -65.36144 13565 ft 368 kts 178°
2026-04-21 21:56 -24.98490 -65.36004 14164 ft 370 kts 178°
2026-04-21 21:56 -25.01076 -65.35858 14702 ft 373 kts 179°
2026-04-21 21:56 -25.03677 -65.35709 15230 ft 376 kts 179°
2026-04-21 21:56 -25.06299 -65.35557 15784 ft 378 kts 179°
2026-04-21 21:57 -25.08935 -65.35402 16338 ft 381 kts 179°
2026-04-21 21:57 -25.10691 -65.35300 16692 ft 383 kts 180°
2026-04-21 21:57 -25.14270 -65.35093 17385 ft 387 kts 180°
2026-04-21 21:57 -25.16970 -65.34936 17913 ft 390 kts 180°
2026-04-21 21:58 -25.19684 -65.34778 18445 ft 392 kts 181°
2026-04-21 21:58 -25.21492 -65.34672 18750 ft 394 kts 181°
2026-04-21 21:58 -25.24243 -65.34512 19199 ft 397 kts 181°
2026-04-21 21:58 -25.27011 -65.34351 19651 ft 400 kts 181°
2026-04-21 21:59 -25.30742 -65.34133 20267 ft 403 kts 181°
2026-04-21 21:59 -25.32606 -65.34023 20576 ft 405 kts 181°
2026-04-21 21:59 -25.35423 -65.33859 21012 ft 407 kts 181°
2026-04-21 21:59 -25.38262 -65.33692 21466 ft 409 kts 182°
2026-04-21 22:00 -25.41114 -65.33526 21883 ft 411 kts 182°
2026-04-21 22:00 -25.43982 -65.33358 22259 ft 415 kts 182°
2026-04-21 22:00 -25.46879 -65.33189 22642 ft 419 kts 182°
2026-04-21 22:00 -25.49799 -65.33018 23063 ft 422 kts 182°
2026-04-21 22:01 -25.52744 -65.32845 23441 ft 425 kts 182°
2026-04-21 22:01 -25.55709 -65.32671 23795 ft 429 kts 182°
2026-04-21 22:01 -25.58695 -65.32497 24095 ft 432 kts 182°
2026-04-21 22:01 -25.61709 -65.32319 24378 ft 435 kts 182°
2026-04-21 22:02 -25.64742 -65.32140 24743 ft 437 kts 182°
2026-04-21 22:02 -25.67786 -65.31961 25064 ft 439 kts 182°
2026-04-21 22:02 -25.70850 -65.31781 25337 ft 443 kts 183°
2026-04-21 22:02 -25.73945 -65.31587 25596 ft 448 kts 180°
2026-04-21 22:03 -25.77055 -65.31051 25868 ft 458 kts 171°
2026-04-21 22:03 -25.80125 -65.30022 26181 ft 463 kts 167°
2026-04-21 22:03 -25.83195 -65.28874 26469 ft 467 kts 166°
2026-04-21 22:03 -25.86277 -65.27690 26693 ft 471 kts 166°
2026-04-21 22:04 -25.89378 -65.26501 26921 ft 473 kts 166°
2026-04-21 22:04 -25.92505 -65.25314 27203 ft 475 kts 167°
2026-04-21 22:04 -25.95640 -65.24138 27482 ft 477 kts 167°
2026-04-21 22:04 -25.98796 -65.22965 27735 ft 479 kts 167°
2026-04-21 22:05 -26.01975 -65.21791 27974 ft 482 kts 167°
2026-04-21 22:05 -26.05163 -65.20616 28214 ft 485 kts 167°
2026-04-21 22:05 -26.08368 -65.19434 28466 ft 487 kts 167°
2026-04-21 22:05 -26.11593 -65.18245 28715 ft 489 kts 167°
2026-04-21 22:06 -26.14831 -65.17049 28942 ft 491 kts 168°
2026-04-21 22:06 -26.18079 -65.15848 29172 ft 493 kts 168°
2026-04-21 22:06 -26.21343 -65.14640 29399 ft 496 kts 168°
2026-04-21 22:06 -26.24625 -65.13424 29632 ft 498 kts 168°
2026-04-21 22:07 -26.27914 -65.12205 29849 ft 500 kts 168°
2026-04-21 22:07 -26.31226 -65.10977 30058 ft 502 kts 168°
2026-04-21 22:07 -26.34542 -65.09746 30261 ft 504 kts 168°
2026-04-21 22:07 -26.37873 -65.08509 30457 ft 506 kts 168°
2026-04-21 22:08 -26.41211 -65.07268 30646 ft 506 kts 168°
2026-04-21 22:08 -26.44557 -65.06024 30883 ft 506 kts 168°
2026-04-21 22:08 -26.47497 -65.04929 31115 ft 505 kts 168°
2026-04-21 22:08 -26.50827 -65.03689 31409 ft 504 kts 168°
2026-04-21 22:09 -26.54157 -65.02447 31664 ft 504 kts 168°
2026-04-21 22:09 -26.57483 -65.01208 31904 ft 504 kts 168°
2026-04-21 22:09 -26.60811 -64.99968 32168 ft 504 kts 168°
2026-04-21 22:09 -26.64132 -64.98729 32443 ft 503 kts 168°
2026-04-21 22:10 -26.67456 -64.97488 32707 ft 503 kts 168°
2026-04-21 22:10 -26.70772 -64.96251 32955 ft 503 kts 168°
2026-04-21 22:10 -26.74087 -64.95012 33202 ft 503 kts 169°
2026-04-21 22:10 -26.77407 -64.93770 33474 ft 502 kts 169°
2026-04-21 22:11 -26.80715 -64.92530 33730 ft 502 kts 169°
2026-04-21 22:11 -26.84027 -64.91290 33958 ft 502 kts 169°
2026-04-21 22:11 -26.87338 -64.90049 34188 ft 502 kts 169°
2026-04-21 22:11 -26.90654 -64.88808 34381 ft 502 kts 169°
2026-04-21 22:12 -26.93974 -64.87566 34590 ft 502 kts 169°
2026-04-21 22:12 -26.97285 -64.86326 34802 ft 502 kts 169°
2026-04-21 22:12 -27.00593 -64.85087 35019 ft 502 kts 169°
2026-04-21 22:13 -27.07241 -64.82596 35100 ft 505 kts 169°
2026-04-21 22:13 -27.13887 -64.80097 35109 ft 503 kts 169°
2026-04-21 22:14 -27.20551 -64.77593 35111 ft 508 kts 169°
2026-04-21 22:14 -27.27291 -64.75057 35102 ft 512 kts 169°
2026-04-21 22:15 -27.34063 -64.72501 35102 ft 514 kts 169°
2026-04-21 22:15 -27.40851 -64.69936 35093 ft 515 kts 169°
2026-04-21 22:16 -27.47641 -64.67367 35089 ft 514 kts 169°
2026-04-21 22:16 -27.54371 -64.64560 35078 ft 522 kts 160°
2026-04-21 22:17 -27.60692 -64.60421 35105 ft 526 kts 155°
2026-04-21 22:17 -27.66910 -64.56101 35089 ft 524 kts 155°
2026-04-21 22:18 -27.73139 -64.51838 35082 ft 522 kts 156°
2026-04-21 22:18 -27.79360 -64.47644 35088 ft 521 kts 156°
2026-04-21 22:19 -27.85585 -64.43458 35081 ft 520 kts 156°
2026-04-21 22:19 -27.91803 -64.39265 35088 ft 520 kts 156°
2026-04-21 22:20 -27.98021 -64.35061 35093 ft 521 kts 156°
2026-04-21 22:20 -28.04240 -64.30850 35100 ft 522 kts 156°
2026-04-21 22:21 -28.10475 -64.26623 35103 ft 523 kts 156°
2026-04-21 22:21 -28.16765 -64.22352 35108 ft 524 kts 156°
2026-04-21 22:22 -28.23022 -64.18097 35101 ft 525 kts 156°
2026-04-21 22:22 -28.29291 -64.13831 35101 ft 525 kts 156°
2026-04-21 22:23 -28.35563 -64.09559 35099 ft 526 kts 156°
2026-04-21 22:23 -28.41834 -64.05282 35096 ft 527 kts 156°
2026-04-21 22:24 -28.48118 -64.00988 35098 ft 527 kts 156°
2026-04-21 22:24 -28.54403 -63.96688 35100 ft 527 kts 156°
2026-04-21 22:25 -28.60691 -63.92379 35097 ft 528 kts 156°
2026-04-21 22:25 -28.66975 -63.88067 35096 ft 528 kts 156°
2026-04-21 22:26 -28.73269 -63.83741 35092 ft 528 kts 156°
2026-04-21 22:26 -28.79384 -63.79533 35097 ft 528 kts 156°
2026-04-21 22:27 -28.85671 -63.75185 35096 ft 528 kts 156°
2026-04-21 22:27 -28.91944 -63.70821 35098 ft 528 kts 156°
2026-04-21 22:28 -28.98215 -63.66454 35096 ft 528 kts 156°
2026-04-21 22:28 -29.04484 -63.62085 35096 ft 528 kts 156°
2026-04-21 22:29 -29.10744 -63.57716 35097 ft 527 kts 156°
2026-04-21 22:29 -29.17009 -63.53331 35098 ft 527 kts 156°
2026-04-21 22:30 -29.23258 -63.48949 35097 ft 527 kts 156°
2026-04-21 22:30 -29.29505 -63.44563 35102 ft 527 kts 156°
2026-04-21 22:31 -29.35749 -63.40172 35101 ft 526 kts 156°
2026-04-21 22:31 -29.41983 -63.35781 35106 ft 526 kts 156°
2026-04-21 22:32 -29.48217 -63.31383 35094 ft 526 kts 156°
2026-04-21 22:32 -29.54441 -63.26971 35113 ft 526 kts 156°
2026-04-21 22:33 -29.60667 -63.22548 35107 ft 526 kts 156°
2026-04-21 22:33 -29.66879 -63.18128 35104 ft 526 kts 156°
2026-04-21 22:34 -29.73100 -63.13697 35105 ft 526 kts 156°
2026-04-21 22:34 -29.79320 -63.09260 35105 ft 526 kts 156°
2026-04-21 22:35 -29.85531 -63.04823 35106 ft 526 kts 156°
2026-04-21 22:35 -29.91745 -63.00377 35108 ft 526 kts 156°
2026-04-21 22:36 -30.01062 -62.93699 35103 ft 526 kts 156°
2026-04-21 22:36 -30.07270 -62.89240 35102 ft 525 kts 156°
2026-04-21 22:37 -30.13474 -62.84778 35106 ft 525 kts 156°
2026-04-21 22:37 -30.19671 -62.80315 35108 ft 525 kts 156°
2026-04-21 22:38 -30.25867 -62.75845 35101 ft 525 kts 156°
2026-04-21 22:38 -30.32056 -62.71372 35104 ft 524 kts 156°
2026-04-21 22:39 -30.38242 -62.66896 35108 ft 524 kts 156°
2026-04-21 22:39 -30.44423 -62.62416 35106 ft 524 kts 156°
2026-04-21 22:40 -30.50598 -62.57933 35103 ft 524 kts 156°
2026-04-21 22:40 -30.56762 -62.53449 35101 ft 523 kts 156°
2026-04-21 22:41 -30.62929 -62.48956 35103 ft 523 kts 156°
2026-04-21 22:41 -30.69090 -62.44461 35109 ft 523 kts 156°
2026-04-21 22:42 -30.75247 -62.39962 35107 ft 523 kts 156°
2026-04-21 22:42 -30.81401 -62.35471 35104 ft 522 kts 156°
2026-04-21 22:43 -30.87570 -62.31008 35104 ft 522 kts 156°
2026-04-21 22:43 -30.93737 -62.26540 35105 ft 522 kts 156°
2026-04-21 22:44 -30.98861 -62.22815 35103 ft 522 kts 156°
2026-04-21 22:44 -31.05017 -62.18333 35105 ft 522 kts 156°
2026-04-21 22:45 -31.11174 -62.13839 35102 ft 522 kts 155°
2026-04-21 22:45 -31.17328 -62.09339 35108 ft 522 kts 155°
2026-04-21 22:46 -31.23475 -62.04820 35101 ft 522 kts 155°
2026-04-21 22:46 -31.29605 -62.00257 35106 ft 522 kts 155°
2026-04-21 22:47 -31.35733 -61.95683 35104 ft 522 kts 155°
2026-04-21 22:47 -31.41856 -61.91111 35100 ft 522 kts 155°
2026-04-21 22:48 -31.47983 -61.86534 35095 ft 522 kts 155°
2026-04-21 22:48 -31.54105 -61.81953 35099 ft 522 kts 155°
2026-04-21 22:49 -31.60230 -61.77363 35098 ft 522 kts 155°
2026-04-21 22:49 -31.66360 -61.72761 35097 ft 522 kts 154°
2026-04-21 22:50 -31.72475 -61.68163 35094 ft 522 kts 154°
2026-04-21 22:50 -31.78594 -61.63554 35096 ft 522 kts 154°
2026-04-21 22:51 -31.84702 -61.58947 35094 ft 522 kts 154°
2026-04-21 22:51 -31.90815 -61.54329 35097 ft 522 kts 154°
2026-04-21 22:52 -31.96927 -61.49716 35094 ft 522 kts 154°
2026-04-21 22:52 -32.03027 -61.45104 35092 ft 521 kts 154°
2026-04-21 22:53 -32.09133 -61.40479 35099 ft 521 kts 154°
2026-04-21 22:53 -32.15233 -61.35850 35092 ft 521 kts 154°
2026-04-21 22:54 -32.21331 -61.31214 35097 ft 521 kts 154°
2026-04-21 22:54 -32.27426 -61.26574 35085 ft 521 kts 154°
2026-04-21 22:55 -32.33512 -61.21933 35098 ft 521 kts 154°
2026-04-21 22:55 -32.39595 -61.17287 35090 ft 520 kts 154°
2026-04-21 22:56 -32.45678 -61.12633 35094 ft 520 kts 154°
2026-04-21 22:56 -32.51756 -61.07975 35091 ft 520 kts 153°
2026-04-21 22:57 -32.57829 -61.03314 35089 ft 520 kts 153°
2026-04-21 22:57 -32.63243 -60.99152 35087 ft 520 kts 153°
2026-04-21 22:58 -32.69314 -60.94477 35082 ft 520 kts 153°
2026-04-21 22:58 -32.75379 -60.89799 35083 ft 520 kts 153°
2026-04-21 22:59 -32.81448 -60.85110 35078 ft 520 kts 153°
2026-04-21 22:59 -32.87504 -60.80424 35078 ft 520 kts 153°
2026-04-21 23:00 -32.93643 -60.75802 35079 ft 518 kts 155°
2026-04-21 23:00 -32.99839 -60.71556 35078 ft 516 kts 156°
2026-04-21 23:01 -33.06086 -60.67337 35079 ft 517 kts 156°
2026-04-21 23:01 -33.12326 -60.63063 35075 ft 517 kts 156°
2026-04-21 23:02 -33.18260 -60.58243 34839 ft 517 kts 142°
2026-04-21 23:02 -33.20779 -60.55181 34292 ft 520 kts 131°
2026-04-21 23:02 -33.22994 -60.51739 33550 ft 524 kts 129°
2026-04-21 23:03 -33.25173 -60.48253 32773 ft 526 kts 128°
2026-04-21 23:03 -33.27357 -60.44745 32183 ft 524 kts 128°
2026-04-21 23:03 -33.29552 -60.41233 31785 ft 517 kts 128°
2026-04-21 23:03 -33.31700 -60.37822 31418 ft 510 kts 128°
2026-04-21 23:04 -33.33828 -60.34461 31005 ft 505 kts 128°
2026-04-21 23:04 -33.35919 -60.31172 30549 ft 501 kts 128°
2026-04-21 23:04 -33.38021 -60.27869 30086 ft 497 kts 128°
2026-04-21 23:04 -33.40134 -60.24549 29584 ft 493 kts 128°
2026-04-21 23:05 -33.42166 -60.21353 29050 ft 483 kts 128°
2026-04-21 23:05 -33.44211 -60.18131 28298 ft 477 kts 128°
2026-04-21 23:05 -33.46211 -60.14978 27492 ft 474 kts 128°
2026-04-21 23:05 -33.48193 -60.11848 26763 ft 469 kts 128°
2026-04-21 23:06 -33.50148 -60.08758 26102 ft 463 kts 128°
2026-04-21 23:06 -33.52081 -60.05699 25465 ft 457 kts 128°
2026-04-21 23:06 -33.53985 -60.02684 24835 ft 451 kts 128°
2026-04-21 23:06 -33.55869 -59.99699 24208 ft 446 kts 129°
2026-04-21 23:07 -33.57729 -59.96749 23583 ft 441 kts 129°
2026-04-21 23:07 -33.59566 -59.93832 22876 ft 436 kts 129°
2026-04-21 23:07 -33.61382 -59.90947 22240 ft 430 kts 129°
2026-04-21 23:07 -33.63170 -59.88106 21625 ft 423 kts 128°
2026-04-21 23:08 -33.64926 -59.85311 21143 ft 417 kts 128°
2026-04-21 23:08 -33.66669 -59.82537 20709 ft 416 kts 128°
2026-04-21 23:08 -33.68410 -59.79764 20279 ft 414 kts 128°
2026-04-21 23:08 -33.70138 -59.77009 19846 ft 413 kts 128°
2026-04-21 23:09 -33.71862 -59.74259 19421 ft 411 kts 128°
2026-04-21 23:09 -33.73574 -59.71524 19004 ft 409 kts 128°
2026-04-21 23:09 -33.75279 -59.68800 18588 ft 407 kts 128°
2026-04-21 23:09 -33.76980 -59.66080 18146 ft 406 kts 128°
2026-04-21 23:10 -33.78669 -59.63376 17681 ft 404 kts 128°
2026-04-21 23:10 -33.80329 -59.60717 17251 ft 401 kts 128°
2026-04-21 23:10 -33.81998 -59.58042 16830 ft 399 kts 128°
2026-04-21 23:10 -33.83676 -59.55348 16419 ft 396 kts 128°
2026-04-21 23:11 -33.85321 -59.52708 16004 ft 393 kts 128°
2026-04-21 23:11 -33.86953 -59.50086 15599 ft 391 kts 128°
2026-04-21 23:11 -33.88580 -59.47470 15191 ft 389 kts 128°
2026-04-21 23:11 -33.90194 -59.44874 14791 ft 386 kts 128°
2026-04-21 23:12 -33.91798 -59.42293 14393 ft 384 kts 128°
2026-04-21 23:12 -33.93397 -59.39716 13995 ft 383 kts 128°
2026-04-21 23:12 -33.94985 -59.37156 13570 ft 381 kts 127°
2026-04-21 23:12 -33.96563 -59.34610 13134 ft 379 kts 127°
2026-04-21 23:13 -33.98126 -59.32122 12789 ft 373 kts 129°
2026-04-21 23:13 -33.99718 -59.29702 12538 ft 365 kts 129°
2026-04-21 23:13 -34.01317 -59.27313 12282 ft 358 kts 130°
2026-04-21 23:13 -34.02858 -59.25017 12030 ft 356 kts 129°
2026-04-21 23:14 -34.04403 -59.22707 11777 ft 353 kts 129°
2026-04-21 23:14 -34.05934 -59.20411 11519 ft 350 kts 129°
2026-04-21 23:14 -34.07452 -59.18125 11205 ft 347 kts 129°
2026-04-21 23:14 -34.08952 -59.15861 10808 ft 345 kts 129°
2026-04-21 23:15 -34.10444 -59.13604 10507 ft 341 kts 129°
2026-04-21 23:15 -34.11908 -59.11388 10315 ft 333 kts 129°
2026-04-21 23:15 -34.13332 -59.09229 10160 ft 325 kts 129°
2026-04-21 23:15 -34.14720 -59.07123 9992 ft 317 kts 129°
2026-04-21 23:16 -34.16094 -59.05037 9641 ft 316 kts 129°
2026-04-21 23:16 -34.17464 -59.02957 9260 ft 317 kts 129°
2026-04-21 23:16 -34.18833 -59.00877 8870 ft 317 kts 129°
2026-04-21 23:16 -34.20205 -58.98792 8482 ft 317 kts 129°
2026-04-21 23:17 -34.21577 -58.96705 8085 ft 318 kts 128°
2026-04-21 23:17 -34.22974 -58.94578 7677 ft 319 kts 128°
2026-04-21 23:17 -34.24335 -58.92506 7291 ft 319 kts 128°
2026-04-21 23:17 -34.25713 -58.90405 6943 ft 318 kts 128°
2026-04-21 23:18 -34.27084 -58.88313 6623 ft 317 kts 128°
2026-04-21 23:18 -34.28465 -58.86206 6296 ft 314 kts 128°
2026-04-21 23:18 -34.29818 -58.84141 5964 ft 312 kts 127°
2026-04-21 23:18 -34.31082 -58.82209 5652 ft 309 kts 127°
2026-04-21 23:19 -34.32389 -58.80212 5334 ft 298 kts 127°
2026-04-21 23:19 -34.33653 -58.78281 5045 ft 288 kts 126°
2026-04-21 23:19 -34.34875 -58.76411 4753 ft 279 kts 126°
2026-04-21 23:19 -34.36060 -58.74599 4468 ft 270 kts 126°
2026-04-21 23:20 -34.37207 -58.72842 4201 ft 262 kts 126°
2026-04-21 23:20 -34.38318 -58.71138 3933 ft 254 kts 125°
2026-04-21 23:20 -34.39404 -58.69472 3721 ft 250 kts 126°
2026-04-21 23:20 -34.40461 -58.67850 3632 ft 241 kts 125°
2026-04-21 23:21 -34.41482 -58.66283 3543 ft 235 kts 125°
2026-04-21 23:21 -34.42474 -58.64761 3413 ft 225 kts 125°
2026-04-21 23:21 -34.43105 -58.63794 3348 ft 217 kts 125°
2026-04-21 23:21 -34.44328 -58.61917 3210 ft 207 kts 125°
2026-04-21 23:22 -34.45192 -58.60594 3107 ft 194 kts 126°
2026-04-21 23:22 -34.46017 -58.59339 3040 ft 188 kts 123°
2026-04-21 23:22 -34.46773 -58.58057 2967 ft 187 kts 121°
2026-04-21 23:22 -34.47499 -58.56762 2758 ft 182 kts 120°
2026-04-21 23:23 -34.48179 -58.55538 2522 ft 168 kts 120°
2026-04-21 23:23 -34.48600 -58.54778 2388 ft 160 kts 120°
2026-04-21 23:23 -34.49201 -58.53689 2183 ft 152 kts 120°
2026-04-21 23:23 -34.49776 -58.52654 1989 ft 146 kts 120°
2026-04-21 23:24 -34.50330 -58.51653 1805 ft 141 kts 121°
2026-04-21 23:24 -34.50875 -58.50668 1621 ft 140 kts 121°
2026-04-21 23:24 -34.51421 -58.49683 1423 ft 142 kts 122°
2026-04-21 23:24 -34.51978 -58.48681 1246 ft 143 kts 121°
2026-04-21 23:25 -34.52526 -58.47692 1046 ft 140 kts 122°
2026-04-21 23:25 -34.53063 -58.46700 846 ft 141 kts 121°
2026-04-21 23:25 -34.53604 -58.45693 698 ft 145 kts 125°
2026-04-21 23:25 -34.54187 -58.44660 495 ft 152 kts 127°
2026-04-21 23:26 -34.54797 -58.43588 281 ft 156 kts 125°
2026-04-21 23:26 -34.55414 -58.42490 56 ft 158 kts 124°
2026-04-21 23:26 -34.55977 -58.41482 24 ft 115 kts 123°
2026-04-21 23:26 -34.56300 -58.40903 28 ft 45 kts 124°
2026-04-21 23:27 -34.56399 -58.40715 28 ft 16 kts 105°
2026-04-21 23:27 -34.56369 -58.40663 27 ft 6 kts 353°
2026-04-21 23:27 -34.56335 -58.40686 27 ft 5 kts 325°
2026-04-21 23:27 -34.56306 -58.40715 26 ft 5 kts 319°
2026-04-21 23:28 -34.56278 -58.40745 26 ft 5 kts 318°
2026-04-21 23:28 -34.56242 -58.40785 28 ft 11 kts 318°
2026-04-21 23:28 -34.56176 -58.40873 25 ft 16 kts 300°
2026-04-21 23:28 -34.56121 -58.40984 26 ft 15 kts 304°
2026-04-21 23:29 -34.56061 -58.41084 24 ft 14 kts 308°
2026-04-21 23:29 -34.56001 -58.41177 28 ft 14 kts 307°
2026-04-21 23:29 -34.55949 -58.41261 24 ft 9 kts 305°
2026-04-21 23:29 -34.55905 -58.41300 26 ft 8 kts
2026-04-21 23:30 -34.55850 -58.41285 26 ft 8 kts 352°
2026-04-21 23:30 -34.55812 -58.41331 26 ft 8 kts 303°
2026-04-21 23:30 -34.55785 -58.41379 26 ft 5 kts 310°
2026-04-21 23:30 -34.55756 -58.41378 24 ft 4 kts 27°
2026-04-21 23:31 -34.55741 -58.41367 24 ft 0 kts 31°
2026-04-21 23:31 -34.55740 -58.41367 24 ft 0 kts 31°